Location: Asheville, NC
(35.6000°N, 82.5500°W)
Time: 16:40:18
(UTC-05:00)

Vanguard 1 - Pass Details

Date: 07 December 2017
Orbit: 649 x 3834 km, 34.3° (Epoch: 18 January)

Event Time Altitude Azimuth Distance (km) Brightness Sun altitude
Rises 10:32:17 0° 232° (SW) 7,821 14.8 26.2°
Reaches altitude 10° 10:38:09 10° 229° (SW) 6,554 14.5 26.8°
Maximum altitude 10:57:03 57° 158° (SSE) 2,763 13.6 28.4°
Drops below altitude 10° 11:07:39 10° 83° (E) 3,887 13.4 29.1°
Sets 11:10:11 0° 79° (E) 4,562 13.6 29.3°
